User: anonymous   Login
Location: Unspecified
(0.0000°N, 0.0000°E)
Time: 09:01:00
(UTC+00:00)
Language:

DIAMOND BLUE - Orbit

View from above orbital plane
View from above orbital plane
View from above satellite
View from above satellite

Ground track
Ground track

The orbit data is extracted from the following two-line orbital elements,

1 42786U 17036X   19345.67398734 +.00000785 +00000-0 +36838-4 0  9995
2 42786 097.3294 039.2060 0011093 341.1335 018.9489 15.22487709137091
Epoch (UTC): 11 December 2019 16:10:32
Eccentricity: 0.0011093
inclination: 97.3294°
perigee height: 491 km
apogee height: 506 km
right ascension of ascending node: 39.2060°
argument of perigee: 341.1335°
revolutions per day: 15.22487709
mean anomaly at epoch: 18.9489°
orbit number at epoch: 13709

The dashed part of the orbit path shows where the satellite is in the earth's shadow,  

DLR